KP3T Weather Reports


time (UTC)temp
C
wind
direction
speed
KPH
gust
KPH
rain 1hr
cm
rain 24hr
cm
rain mn
cm
humidity
%
barometer
mb
20260507201059 29 180 0.0 1.6 0.00 0.00 0.00 100
20260507200559 30 180 0.0 1.6 0.00 0.00 0.00 100
20260507200058 30 180 0.0 4.8 0.00 0.00 0.00 100
20260507195558 30 180 0.0 0.0 0.00 0.00 0.00 100
20260507195058 30 180 0.0 11.3 0.00 0.00 0.00 100
20260507194557 30 180 0.0 4.8 0.00 0.00 0.00 100
20260507194057 30 180 0.0 9.7 0.00 0.00 0.00 100
20260507193557 31 180 0.0 0.0 0.00 0.00 0.00 100
20260507193057 30 180 0.0 3.2 0.00 0.00 0.00 100
20260507192556 29 180 0.0 11.3 0.00 0.00 0.00 100
20260507192056 30 180 0.0 9.7 0.00 0.00 0.00 100
20260507191556 31 180 0.0 0.0 0.00 0.00 0.00 100
20260507191055 31 180 0.0 0.0 0.00 0.00 0.00 100
20260507190555 31 180 0.0 0.0 0.00 0.00 0.00 100
20260507190055 30 180 0.0 0.0 0.00 0.00 0.00 100
20260507185554 30 180 0.0 0.0 0.00 0.00 0.00 100
20260507185054 31 180 0.0 14.5 0.00 0.00 0.00 100
20260507184554 30 180 4.8 16.1 0.00 0.00 0.00 100
20260507184054 31 180 0.0 0.0 0.00 0.00 0.00 100
20260507183553 31 180 0.0 0.0 0.00 0.00 0.00 100
20260507183053 30 180 0.0 0.0 0.00 0.00 0.00 100
20260507182553 31 180 0.0 6.4 0.00 0.00 0.00 100
20260507182052 31 180 4.8 6.4 0.00 0.00 0.00 100
20260507181552 31 180 0.0 16.1 0.00 0.00 0.00 100
20260507181052 31 180 4.8 9.7 0.00 0.00 0.00 100
20260507180552 34 180 0.0 3.2 0.00 0.00 0.00 100
20260507180051 32 180 0.0 3.2 0.00 0.00 0.00 100
20260507175551 32 180 0.0 0.0 0.00 0.00 0.00 100
20260507175051 32 180 0.0 8.0 0.00 0.00 0.00 100
20260507174550 32 180 0.0 0.0 0.00 0.00 0.00 100
20260507174050 31 180 0.0 4.8 0.00 0.00 0.00 100
20260507173550 32 180 0.0 0.0 0.00 0.00 0.00 100
20260507173050 32 180 0.0 0.0 0.00 0.00 0.00 100
20260507172549 32 180 0.0 0.0 0.00 0.00 0.00 100
20260507172049 31 180 0.0 6.4 0.00 0.00 0.00 100
20260507171549 31 180 0.0 0.0 0.00 0.00 0.00 100
20260507171048 30 180 0.0 0.0 0.00 0.00 0.00 100
20260507170548 31 180 0.0 0.0 0.00 0.00 0.00 100
20260507170048 32 180 0.0 0.0 0.00 0.00 0.00 100
20260507165547 32 180 0.0 0.0 0.00 0.00 0.00 100
20260507165047 31 180 0.0 0.0 0.00 0.00 0.00 100
20260507164547 30 180 0.0 0.0 0.00 0.00 0.00 100
20260507164047 31 180 0.0 0.0 0.00 0.00 0.00 100
20260507163546 32 180 0.0 0.0 0.00 0.00 0.00 100
20260507163046 35 180 0.0 9.7 0.00 0.00 0.00 100
20260507162546 33 180 0.0 9.7 0.00 0.00 0.00 100
20260507162045 33 180 6.4 8.0 0.00 0.00 0.00 100
20260507161545 32 180 0.0 12.9 0.00 0.00 0.00 100
20260507161045 31 180 0.0 12.9 0.00 0.00 0.00 100
20260507160545 32 180 1.6 12.9 0.00 0.00 0.00 100
20260507160044 32 180 0.0 12.9 0.00 0.00 0.00 100
20260507155544 32 180 0.0 11.3 0.00 0.00 0.00 100
20260507155044 32 180 6.4 11.3 0.00 0.00 0.00 100
20260507154543 31 180 0.0 4.8 0.00 0.00 0.00 100
20260507154043 32 180 0.0 0.0 0.00 0.00 0.00 100
20260507153543 33 180 0.0 0.0 0.00 0.00 0.00 100
20260507153042 35 180 0.0 0.0 0.00 0.00 0.00 100
20260507152542 36 180 0.0 4.8 0.00 0.00 0.00 100
20260507152042 36 180 3.2 8.0 0.00 0.00 0.00 100
20260507151542 37 180 0.0 0.0 0.00 0.00 0.00 100
20260507151041 36 180 0.0 6.4 0.00 0.00 0.00 100
20260507150541 33 180 0.0 11.3 0.00 0.00 0.00 100
20260507150041 36 180 3.2 8.0 0.00 0.00 0.00 100
20260507145540 37 180 0.0 4.8 0.00 0.00 0.00 100
20260507145040 35 180 0.0 4.8 0.00 0.00 0.00 100
20260507144540 33 180 0.0 11.3 0.00 0.00 0.00 100
20260507144039 38 180 0.0 6.4 0.00 0.00 0.00 100
20260507143539 38 180 0.0 0.0 0.00 0.00 0.00 100
20260507143039 38 180 0.0 0.0 0.00 0.00 0.00 100
20260507142539 36 180 0.0 0.0 0.00 0.00 0.00 100
20260507142038 38 180 0.0 0.0 0.00 0.00 0.00 100
20260507141538 33 180 0.0 0.0 0.00 0.00 0.00 100
20260507141038 32 180 0.0 0.0 0.00 0.00 0.00 100
20260507140537 35 180 0.0 6.4 0.00 0.00 0.00 100
20260507140037 34 180 0.0 0.0 0.00 0.00 0.00 100
20260507135537 31 180 0.0 0.0 0.00 0.00 0.00 100
20260507135037 33 180 0.0 3.2 0.00 0.00 0.00 100
20260507134536 37 180 0.0 0.0 0.00 0.00 0.00 100
20260507134036 37 180 0.0 0.0 0.00 0.00 0.00 100
20260507133536 34 180 0.0 0.0 0.00 0.00 0.00 100
20260507133035 35 180 0.0 0.0 0.00 0.00 0.00 100
20260507132535 33 180 0.0 0.0 0.00 0.00 0.00 100
20260507132035 31 180 0.0 0.0 0.00 0.00 0.00 100
20260507131534 33 180 0.0 3.2 0.00 0.00 0.00 100
20260507131035 35 180 0.0 0.0 0.00 0.00 0.00 100
20260507130534 35 180 0.0 0.0 0.00 0.00 0.00 100
20260507130034 34 180 0.0 0.0 0.00 0.00 0.00 100
20260507125533 34 180 0.0 0.0 0.00 0.00 0.00 100
20260507125033 35 180 0.0 0.0 0.00 0.00 0.00 100
20260507124533 33 180 0.0 0.0 0.00 0.00 0.00 100
20260507124032 32 180 0.0 0.0 0.00 0.00 0.00 100
20260507123532 32 180 0.0 0.0 0.00 0.00 0.00 100
20260507123032 31 180 0.0 0.0 0.00 0.00 0.00 100
20260507122532 30 180 0.0 0.0 0.00 0.00 0.00 100
20260507122031 30 180 0.0 0.0 0.00 0.00 0.00 100
20260507121531 31 180 0.0 0.0 0.00 0.00 0.00 100
20260507121031 30 180 0.0 0.0 0.00 0.00 0.00 100
20260507120530 32 180 0.0 0.0 0.00 0.00 0.00 100
20260507120030 30 180 0.0 0.0 0.00 0.00 0.00 100
20260507115530 31 180 0.0 0.0 0.00 0.00 0.00 100
20260507115029 28 180 0.0 0.0 0.00 0.00 0.00 100
20260507114529 28 180 0.0 0.0 0.00 0.00 0.00 100
20260507114029 30 180 0.0 0.0 0.00 0.00 0.00 100
20260507113529 28 180 0.0 0.0 0.00 0.00 0.00 100
20260507113028 28 180 0.0 0.0 0.00 0.00 0.00 100
20260507112528 28 180 0.0 0.0 0.00 0.00 0.00 100
20260507112028 27 180 0.0 0.0 0.00 0.00 0.00 100
20260507111527 25 180 0.0 0.0 0.00 0.00 0.00 100
20260507111027 25 180 0.0 0.0 0.00 0.00 0.00 100
20260507110527 25 180 0.0 0.0 0.00 0.00 0.00 100
20260507110027 24 180 0.0 0.0 0.00 0.00 0.00 100
20260507105526 23 180 0.0 0.0 0.00 0.00 0.00 100
20260507105026 23 180 0.0 4.8 0.00 0.00 0.00 100
20260507104526 23 180 0.0 0.0 0.00 0.00 0.00 100
20260507104025 23 180 0.0 0.0 0.00 0.00 0.00 100
20260507103525 23 180 0.0 0.0 0.00 0.00 0.00 100
20260507103025 22 180 0.0 0.0 0.00 0.00 0.00 100
20260507102525 22 180 0.0 0.0 0.00 0.00 0.00 100
20260507102024 22 180 0.0 0.0 0.00 0.00 0.00 100
20260507101524 22 180 0.0 0.0 0.00 0.00 0.00 100
20260507101024 22 180 0.0 0.0 0.00 0.00 0.00 100
20260507100523 22 180 0.0 0.0 0.00 0.00 0.00 100
20260507100023 22 180 0.0 0.0 0.00 0.00 0.00 100
20260507095523 22 180 0.0 0.0 0.00 0.00 0.00 100
20260507095022 22 180 0.0 0.0 0.00 0.00 0.00 100
20260507094522 22 180 0.0 0.0 0.00 0.00 0.00 100
20260507094022 22 180 0.0 0.0 0.00 0.00 0.00 100
20260507093522 22 180 0.0 0.0 0.00 0.00 0.00 100
20260507093022 22 180 0.0 4.8 0.00 0.00 0.00 100
20260507092521 22 180 0.0 0.0 0.00 0.00 0.00 100
20260507092021 22 180 0.0 0.0 0.00 0.00 0.00 100
20260507091520 22 180 0.0 0.0 0.00 0.00 0.00 100
20260507091020 22 180 0.0 0.0 0.00 0.00 0.00 100
20260507090520 22 180 0.0 0.0 0.00 0.00 0.00 100
20260507090020 22 180 0.0 0.0 0.00 0.00 0.00 100
20260507085519 22 180 0.0 0.0 0.00 0.00 0.00 100
20260507085019 22 180 0.0 0.0 0.00 0.00 0.00 100
20260507084519 21 180 0.0 0.0 0.00 0.00 0.00 100
20260507084018 22 180 0.0 0.0 0.00 0.00 0.00 100
20260507083518 22 180 0.0 0.0 0.00 0.00 0.00 100
20260507083018 22 180 0.0 0.0 0.00 0.00 0.00 100
20260507082517 22 180 0.0 0.0 0.00 0.00 0.00 100
20260507082017 22 180 0.0 0.0 0.00 0.00 0.00 100
20260507081517 22 180 0.0 0.0 0.00 0.00 0.00 100
20260507081017 22 180 0.0 0.0 0.00 0.00 0.00 100
20260507080516 22 180 0.0 0.0 0.00 0.00 0.00 100
20260507080206 22 180 0.0 0.0 0.00 0.00 0.00 100
20260507080016 22 180 0.0 0.0 0.00 0.00 0.00 100
20260507075516 22 180 0.0 3.2 0.00 0.00 0.00 100
20260507075015 22 180 0.0 0.0 0.00 0.00 0.00 100
20260507074515 23 180 0.0 0.0 0.00 0.00 0.00 100
20260507074015 23 180 0.0 0.0 0.00 0.00 0.00 100
20260507073515 22 180 0.0 4.8 0.00 0.00 0.00 100
20260507073014 23 180 0.0 4.8 0.00 0.00 0.00 100
20260507072514 23 180 0.0 0.0 0.00 0.00 0.00 100
20260507072014 22 180 0.0 0.0 0.00 0.00 0.00 100
20260507071513 23 180 0.0 0.0 0.00 0.00 0.00 100
20260507071013 23 180 0.0 0.0 0.00 0.00 0.00 100
20260507070513 23 180 0.0 0.0 0.00 0.00 0.00 100
20260507070013 24 180 0.0 0.0 0.00 0.00 0.00 100
20260507065512 23 180 0.0 0.0 0.00 0.00 0.00 100
20260507065012 23 180 0.0 0.0 0.00 0.00 0.00 100
20260507064512 23 180 0.0 0.0 0.00 0.00 0.00 100
20260507064011 23 180 0.0 0.0 0.00 0.00 0.00 100
20260507063511 23 180 0.0 0.0 0.00 0.00 0.00 100
20260507063011 23 180 0.0 0.0 0.00 0.00 0.00 100
20260507062510 23 180 0.0 0.0 0.00 0.00 0.00 100
20260507062010 24 180 0.0 0.0 0.00 0.00 0.00 100
20260507061510 23 180 0.0 0.0 0.00 0.00 0.00 100
20260507061010 23 180 0.0 0.0 0.00 0.00 0.00 100
20260507060509 24 180 0.0 0.0 0.00 0.00 0.00 100
20260507060009 24 180 0.0 0.0 0.00 0.00 0.00 100
20260507055509 24 180 0.0 0.0 0.00 0.00 0.00 100
20260507055008 24 180 0.0 0.0 0.00 0.00 0.00 100
20260507054508 24 180 0.0 0.0 0.00 0.00 0.00 100
20260507054008 24 180 0.0 0.0 0.00 0.00 0.00 100
20260507053507 24 180 0.0 0.0 0.00 0.00 0.00 100
20260507053007 24 180 0.0 0.0 0.00 0.00 0.00 100
20260507052507 24 180 0.0 0.0 0.00 0.00 0.00 100
20260507052007 24 180 0.0 0.0 0.00 0.00 0.00 100
20260507051506 24 180 0.0 0.0 0.00 0.00 0.00 100
20260507051006 25 180 0.0 0.0 0.00 0.00 0.00 100
20260507050506 24 180 0.0 1.6 0.00 0.00 0.00 100
20260507050006 24 180 0.0 8.0 0.00 0.00 0.00 100
20260507045505 25 180 0.0 0.0 0.00 0.00 0.00 100
20260507045005 25 180 0.0 0.0 0.00 0.00 0.00 100
20260507044505 25 180 0.0 0.0 0.00 0.00 0.00 100
20260507044004 25 180 0.0 3.2 0.00 0.00 0.00 100
20260507043504 25 180 0.0 4.8 0.00 0.00 0.00 100
20260507043004 25 180 0.0 4.8 0.00 0.00 0.00 100
20260507042503 25 180 0.0 0.0 0.00 0.00 0.00 100
20260507042003 25 180 0.0 0.0 0.00 0.00 0.00 100
20260507041503 25 180 0.0 3.2 0.00 0.00 0.00 100
20260507041003 26 180 0.0 0.0 0.00 0.00 0.00 100
20260507040502 25 180 0.0 0.0 0.00 0.00 0.00 100
20260507040002 25 180 0.0 0.0 0.00 0.00 0.00 100
20260507035502 26 180 0.0 0.0 0.00 0.00 0.00 100
20260507035001 26 180 0.0 0.0 0.00 0.00 0.00 100
20260507034501 26 180 0.0 0.0 0.00 0.00 0.00 100
20260507034001 26 180 0.0 0.0 0.00 0.00 0.00 100
20260507033501 26 180 0.0 0.0 0.00 0.00 0.00 100
20260507033000 26 180 0.0 0.0 0.00 0.00 0.00 100
20260507032500 27 180 0.0 0.0 0.00 0.00 0.00 100
20260507032000 26 180 0.0 0.0 0.00 0.00 0.00 100
20260507031459 27 180 0.0 0.0 0.00 0.00 0.00 100
20260507030959 27 180 0.0 0.0 0.00 0.00 0.00 100
20260507030459 26 180 0.0 0.0 0.00 0.00 0.00 100
20260507025958 27 180 0.0 0.0 0.00 0.00 0.00 100
20260507025458 26 180 0.0 0.0 0.00 0.00 0.00 100
20260507024958 26 180 0.0 0.0 0.00 0.00 0.00 100
20260507024457 26 180 0.0 0.0 0.00 0.00 0.00 100
20260507023957 27 180 0.0 0.0 0.00 0.00 0.00 100
20260507023457 27 180 0.0 0.0 0.00 0.00 0.00 100
20260507022957 27 180 0.0 0.0 0.00 0.00 0.00 100
20260507022456 26 180 0.0 0.0 0.00 0.00 0.00 100
20260507021956 26 180 0.0 0.0 0.00 0.00 0.00 100
20260507021456 26 180 0.0 0.0 0.00 0.00 0.00 100
20260507020955 26 180 0.0 0.0 0.00 0.00 0.00 100
20260507020455 27 180 0.0 0.0 0.00 0.00 0.00 100
20260507015955 27 180 0.0 0.0 0.00 0.00 0.00 100
20260507015455 26 180 0.0 0.0 0.00 0.00 0.00 100
20260507014954 27 180 0.0 0.0 0.00 0.00 0.00 100
20260507014454 27 180 0.0 0.0 0.00 0.00 0.00 100
20260507013954 27 180 0.0 0.0 0.00 0.00 0.00 100
20260507013453 27 180 0.0 0.0 0.00 0.00 0.00 100
20260507012953 26 180 0.0 0.0 0.00 0.00 0.00 100
20260507012453 27 180 0.0 0.0 0.00 0.00 0.00 100
20260507011953 27 180 0.0 0.0 0.00 0.00 0.00 100
20260507011452 27 180 0.0 0.0 0.00 0.00 0.00 100
20260507010952 27 180 0.0 0.0 0.00 0.00 0.00 100
20260507010452 27 180 0.0 0.0 0.00 0.00 0.00 100
20260507005951 27 180 0.0 0.0 0.00 0.00 0.00 100
20260507005451 27 180 0.0 0.0 0.00 0.00 0.00 100
20260507004951 27 180 0.0 0.0 0.00 0.00 0.00 100
20260507004450 27 180 0.0 0.0 0.00 0.00 0.00 100
20260507003950 27 180 0.0 0.0 0.00 0.00 0.00 100
20260507003450 28 180 0.0 0.0 0.00 0.00 0.00 100
20260507002950 27 180 0.0 0.0 0.00 0.00 0.00 100
20260507002449 27 180 0.0 0.0 0.00 0.00 0.00 100
20260507001949 27 180 0.0 0.0 0.00 0.00 0.00 100
20260507001449 27 180 0.0 0.0 0.00 0.00 0.00 100
20260507000948 28 180 0.0 0.0 0.00 0.00 0.00 100
20260507000450 28 180 0.0 0.0 0.00 0.00 0.00 100
20260506235948 27 180 0.0 0.0 0.00 0.00 0.00 100
20260506235448 27 180 0.0 0.0 0.00 0.00 0.00 100
20260506234947 28 180 0.0 0.0 0.00 0.00 0.00 100
20260506234447 27 180 0.0 0.0 0.00 0.00 0.00 100
20260506233947 28 180 0.0 0.0 0.00 0.00 0.00 100
20260506233446 27 180 0.0 0.0 0.00 0.00 0.00 100
20260506232946 27 180 0.0 0.0 0.00 0.00 0.00 100
20260506232446 28 180 0.0 0.0 0.00 0.00 0.00 100
20260506231945 27 180 0.0 0.0 0.00 0.00 0.00 100
20260506231445 28 180 0.0 0.0 0.00 0.00 0.00 100
20260506230945 28 180 0.0 0.0 0.00 0.00 0.00 100
20260506230445 27 180 0.0 0.0 0.00 0.00 0.00 100
20260506225944 28 180 0.0 0.0 0.00 0.00 0.00 100
20260506225444 28 180 0.0 0.0 0.00 0.00 0.00 100
20260506224944 29 180 0.0 0.0 0.00 0.00 0.00 100
20260506224443 28 180 0.0 0.0 0.00 0.00 0.00 100
20260506223943 28 180 0.0 0.0 0.00 0.00 0.00 100
20260506223443 28 180 0.0 0.0 0.00 0.00 0.00 100
20260506222943 29 180 0.0 0.0 0.00 0.00 0.00 100
20260506222442 29 180 0.0 0.0 0.00 0.00 0.00 100
20260506221942 29 180 0.0 0.0 0.00 0.00 0.00 100
20260506221442 30 180 0.0 0.0 0.00 0.00 0.00 100
20260506220941 29 180 0.0 0.0 0.00 0.00 0.00 100
20260506220441 29 180 0.0 0.0 0.00 0.00 0.00 100
20260506215941 30 180 0.0 0.0 0.00 0.00 0.00 100
20260506215440 30 180 0.0 0.0 0.00 0.00 0.00 100
20260506214940 30 180 0.0 0.0 0.00 0.00 0.00 100
20260506214440 29 180 0.0 0.0 0.00 0.00 0.00 100
20260506213940 30 180 0.0 0.0 0.00 0.00 0.00 100
20260506213439 30 180 0.0 0.0 0.00 0.00 0.00 100
20260506212939 30 180 0.0 0.0 0.00 0.00 0.00 100
20260506212439 29 180 0.0 0.0 0.00 0.00 0.00 100
20260506211938 31 180 0.0 0.0 0.00 0.00 0.00 100
20260506211438 31 180 0.0 0.0 0.00 0.00 0.00 100
20260506210938 31 180 0.0 0.0 0.00 0.00 0.00 100
20260506210438 30 180 0.0 0.0 0.00 0.00 0.00 100
20260506205937 31 180 0.0 0.0 0.00 0.00 0.00 100
20260506205437 30 180 0.0 0.0 0.00 0.00 0.00 100
20260506204937 32 180 0.0 0.0 0.00 0.00 0.00 100
20260506204436 31 180 0.0 0.0 0.00 0.00 0.00 100
20260506203936 31 180 0.0 0.0 0.00 0.00 0.00 100
20260506203436 31 180 0.0 0.0 0.00 0.00 0.00 100
20260506202935 31 180 0.0 0.0 0.00 0.00 0.00 100
20260506202435 30 180 0.0 9.7 0.00 0.00 0.00 100
20260506201935 31 180 0.0 0.0 0.00 0.00 0.00 100
20260506201435 31 180 0.0 0.0 0.00 0.00 0.00 100